Location: Kosice
(0.0000°N, 21.2500°E)
Time: 09:57:08
(UTC+02:00)

Cosmos 2058 - Visible Passes

Search period start: 10 May 2021 00:00
Search period end: 20 May 2021 00:00
Orbit: 562 x 583 km, 82.5° (Epoch: 09 May)

Date Brightness Start Highest point End Pass type
(mag) Time Alt. Az. Time Alt. Az. Time Alt. Az.
11 May 5.0 18:50:49 10° NNW 18:54:26 31° W 18:58:04 10° SSW visible
12 May 5.7 18:53:57 10° NW 18:57:07 22° W 19:00:17 10° SW visible
13 May 6.0 05:19:38 10° SE 05:21:56 14° E 05:24:12 10° ENE visible
13 May 5.9 18:57:22 10° WNW 18:59:47 15° W 19:02:14 10° SW visible
14 May 5.7 05:21:29 10° SE 05:24:37 20° E 05:27:43 10° NE visible
14 May 6.4 19:01:36 10° W 19:02:28 11° W 19:03:21 10° WSW visible
15 May 5.0 05:23:39 10° SSE 05:27:17 28° E 05:30:55 10° NE visible
16 May 4.3 05:26:01 10° SSE 05:29:58 41° E 05:33:55 10° NNE visible
17 May 3.5 05:28:30 10° S 05:32:39 60° E 05:36:46 10° NNE visible
18 May 2.9 05:31:07 10° S 05:35:20 89° E 05:39:31 10° N visible
19 May 2.9 05:33:51 10° SSW 05:38:01 62° W 05:42:08 10° N visible
